Location: New York
(40.7140°N, 74.0060°W)
Time: 21:55:23
(UTC-04:00)

ISS - Visible Passes

Search period start: 25 September 2016 00:00
Search period end: 05 October 2016 00:00
Orbit: 401 x 409 km, 51.6° (Epoch: 26 September)

Date Brightness Start Highest point End Pass type
(mag) Time Alt. Az. Time Alt. Az. Time Alt. Az.
25 Sep -1.0 05:07:47 15° SSE 05:07:47 15° SSE 05:08:34 10° SSE visible
27 Sep -1.8 19:58:32 10° S 20:00:32 22° SSE 20:00:32 22° SSE visible
28 Sep -1.2 19:07:52 10° SSE 19:09:18 12° SE 19:10:45 10° ESE visible
28 Sep -1.7 20:42:09 10° WSW 20:44:04 32° WSW 20:44:04 32° WSW visible
29 Sep -3.3 19:50:06 10° SW 19:53:18 60° SE 19:54:39 30° ENE visible
30 Sep -1.8 20:34:44 10° W 20:37:44 33° NNW 20:37:45 33° NNW visible
01 Oct -2.7 19:42:19 10° WSW 19:45:30 55° NW 19:47:59 16° NE visible
01 Oct 0.2 21:20:28 10° NW 21:20:40 11° NW 21:20:40 11° NW visible
02 Oct -1.1 20:27:40 10° WNW 20:30:09 20° NNW 20:30:46 19° N visible
03 Oct -1.5 19:34:57 10° W 19:37:49 28° NNW 19:40:42 10° NE visible
04 Oct -0.8 20:20:44 10° NW 20:22:39 15° NNW 20:23:21 14° N visible
